SWA1178 KSMF-PHKO

Flight info

Callsign SWA1178
Flight time N/A
Altitude 36000
Route PYE BEBOP R464 BEKME/N0453F380 R464 BITTA ONOHI VECKI9
Aircraft B38M/M-SDE1FGHILORVWXY/HB1

Departure

Time N/A
Airport Sacramento International Airport (KSMF)

Arrival

Time 2026-05-03 22:51
Airport Ellison Onizuka Kona International Airport at Keāhole (PHKO)
Time Latitude Longitude Altitude Speed Heading
2026-05-03 20:15 31.32652 -140.94929 36277 ft 482 kts 245°
2026-05-03 20:15 31.29543 -141.01873 36278 ft 482 kts 245°
2026-05-03 20:16 31.26442 -141.08787 36275 ft 483 kts 245°
2026-05-03 20:16 31.23313 -141.15749 36284 ft 483 kts 245°
2026-05-03 20:17 31.20183 -141.22702 36280 ft 483 kts 244°
2026-05-03 20:17 31.17069 -141.29606 36277 ft 483 kts 244°
2026-05-03 20:18 31.13933 -141.36547 36274 ft 483 kts 244°
2026-05-03 20:18 31.10990 -141.43048 36279 ft 483 kts 244°
2026-05-03 20:19 31.07848 -141.49975 36271 ft 483 kts 244°
2026-05-03 20:19 31.04697 -141.56911 36271 ft 483 kts 244°
2026-05-03 20:20 31.01545 -141.63836 36279 ft 483 kts 244°
2026-05-03 20:20 30.98389 -141.70756 36277 ft 483 kts 244°
2026-05-03 20:21 30.95247 -141.77636 36276 ft 484 kts 244°
2026-05-03 20:21 30.92080 -141.84555 36273 ft 484 kts 244°
2026-05-03 20:22 30.88908 -141.91473 36261 ft 484 kts 244°
2026-05-03 20:22 30.85735 -141.98381 36266 ft 484 kts 244°
2026-05-03 20:23 30.82557 -142.05288 36270 ft 484 kts 244°
2026-05-03 20:23 30.79909 -142.11032 36269 ft 484 kts 244°
2026-05-03 20:24 30.76720 -142.17939 36265 ft 484 kts 244°
2026-05-03 20:24 30.73533 -142.24831 36269 ft 484 kts 244°
2026-05-03 20:25 30.70334 -142.31733 36264 ft 484 kts 244°
2026-05-03 20:25 30.67138 -142.38620 36264 ft 484 kts 244°
2026-05-03 20:26 30.63953 -142.45467 36265 ft 484 kts 244°
2026-05-03 20:26 30.60748 -142.52346 36262 ft 484 kts 244°
2026-05-03 20:27 30.57541 -142.59219 36263 ft 484 kts 244°
2026-05-03 20:27 30.54327 -142.66094 36261 ft 484 kts 244°
2026-05-03 20:28 30.51125 -142.72931 36254 ft 484 kts 243°
2026-05-03 20:28 30.47903 -142.79796 36254 ft 484 kts 243°
2026-05-03 20:29 30.44680 -142.86654 36257 ft 484 kts 243°
2026-05-03 20:29 30.41453 -142.93506 36255 ft 484 kts 243°
2026-05-03 20:30 30.38224 -143.00352 36252 ft 484 kts 243°
2026-05-03 20:30 30.35012 -143.07150 36254 ft 484 kts 243°
2026-05-03 20:31 30.31775 -143.13987 36254 ft 484 kts 243°
2026-05-03 20:31 30.28535 -143.20821 36254 ft 484 kts 243°
2026-05-03 20:32 30.25292 -143.27647 36251 ft 483 kts 243°
2026-05-03 20:32 30.22073 -143.34411 36250 ft 483 kts 243°
2026-05-03 20:33 30.18830 -143.41215 36249 ft 483 kts 243°
2026-05-03 20:33 30.15589 -143.48003 36249 ft 483 kts 243°
2026-05-03 20:34 30.12336 -143.54803 36250 ft 482 kts 243°
2026-05-03 20:34 30.09086 -143.61585 36251 ft 482 kts 243°
2026-05-03 20:35 30.05831 -143.68366 36245 ft 482 kts 243°
2026-05-03 20:35 30.02600 -143.75085 36248 ft 481 kts 243°
2026-05-03 20:36 29.99348 -143.81838 36245 ft 481 kts 243°
2026-05-03 20:36 29.96090 -143.88590 36244 ft 481 kts 243°
2026-05-03 20:37 29.92979 -143.95026 36251 ft 480 kts 243°
2026-05-03 20:37 29.89720 -144.01759 36244 ft 480 kts 243°
2026-05-03 20:38 29.86459 -144.08484 36245 ft 480 kts 243°
2026-05-03 20:38 29.83198 -144.15197 36244 ft 480 kts 243°
2026-05-03 20:39 29.79940 -144.21893 36244 ft 479 kts 243°
2026-05-03 20:39 29.76684 -144.28574 36243 ft 478 kts 243°
2026-05-03 20:40 29.73445 -144.35207 36244 ft 478 kts 243°
2026-05-03 20:40 29.70184 -144.41876 36242 ft 478 kts 242°
2026-05-03 20:41 29.66919 -144.48542 36239 ft 477 kts 242°
2026-05-03 20:41 29.63656 -144.55192 36242 ft 477 kts 242°
2026-05-03 20:42 29.60392 -144.61833 36239 ft 477 kts 242°
2026-05-03 20:42 29.57120 -144.68481 36228 ft 476 kts 242°
2026-05-03 20:43 29.53879 -144.75052 36235 ft 476 kts 242°
2026-05-03 20:43 29.50614 -144.81663 36236 ft 475 kts 242°
2026-05-03 20:44 29.47352 -144.88257 36239 ft 474 kts 242°
2026-05-03 20:44 29.44090 -144.94838 36242 ft 474 kts 242°
2026-05-03 20:45 29.40827 -145.01413 36235 ft 473 kts 242°
2026-05-03 20:45 29.37591 -145.07921 36237 ft 473 kts 242°
2026-05-03 20:46 29.34333 -145.14466 36243 ft 472 kts 242°
2026-05-03 20:46 29.31077 -145.20993 36240 ft 472 kts 242°
2026-05-03 20:47 29.27817 -145.27519 36238 ft 471 kts 242°
2026-05-03 20:47 29.24561 -145.34026 36239 ft 470 kts 242°
2026-05-03 20:48 29.21305 -145.40523 36242 ft 470 kts 242°
2026-05-03 20:48 29.18068 -145.46970 36237 ft 469 kts 242°
2026-05-03 20:49 29.14814 -145.53443 36244 ft 469 kts 242°
2026-05-03 20:49 29.11562 -145.59901 36243 ft 468 kts 242°
2026-05-03 20:50 29.08302 -145.66364 36240 ft 467 kts 242°
2026-05-03 20:50 29.05069 -145.72763 36243 ft 467 kts 242°
2026-05-03 20:51 29.01815 -145.79195 36240 ft 467 kts 242°
2026-05-03 20:51 28.98565 -145.85608 36241 ft 466 kts 242°
2026-05-03 20:52 28.95315 -145.92012 36238 ft 466 kts 242°
2026-05-03 20:52 28.92064 -145.98409 36236 ft 465 kts 242°
2026-05-03 20:53 28.88810 -146.04796 36241 ft 465 kts 242°
2026-05-03 20:53 28.85558 -146.11176 36241 ft 465 kts 242°
2026-05-03 20:54 28.82303 -146.17550 36239 ft 464 kts 242°
2026-05-03 20:54 28.77438 -146.27058 36237 ft 464 kts 242°
2026-05-03 20:55 28.74184 -146.33403 36236 ft 463 kts 242°
2026-05-03 20:55 28.70934 -146.39734 36238 ft 462 kts 242°
2026-05-03 20:56 28.67706 -146.46010 36236 ft 461 kts 242°
2026-05-03 20:56 28.64463 -146.52308 36238 ft 461 kts 242°
2026-05-03 20:57 28.61217 -146.58602 36235 ft 460 kts 242°
2026-05-03 20:57 28.57971 -146.64884 36238 ft 460 kts 242°
2026-05-03 20:58 28.54723 -146.71163 36239 ft 460 kts 242°
2026-05-03 20:58 28.51471 -146.77438 36236 ft 459 kts 242°
2026-05-03 20:59 28.48247 -146.83652 36234 ft 459 kts 242°
2026-05-03 20:59 28.45006 -146.89887 36236 ft 458 kts 242°
2026-05-03 21:00 28.42837 -146.94055 36232 ft 458 kts 241°
2026-05-03 21:00 28.38519 -147.02342 36239 ft 457 kts 241°
2026-05-03 21:01 28.35272 -147.08562 36234 ft 457 kts 241°
2026-05-03 21:01 28.32034 -147.14756 36234 ft 456 kts 241°
2026-05-03 21:02 28.28795 -147.20943 36230 ft 456 kts 241°
2026-05-03 21:02 28.25552 -147.27128 36231 ft 456 kts 241°
2026-05-03 21:03 28.22313 -147.33296 36231 ft 455 kts 241°
2026-05-03 21:03 28.19067 -147.39468 36228 ft 455 kts 241°
2026-05-03 21:04 28.15841 -147.45594 36228 ft 455 kts 241°
2026-05-03 21:04 28.12598 -147.51743 36230 ft 454 kts 241°
2026-05-03 21:05 28.09359 -147.57878 36231 ft 454 kts 241°
2026-05-03 21:05 28.06110 -147.64020 36229 ft 454 kts 241°
2026-05-03 21:06 28.02964 -147.69958 36230 ft 454 kts 241°
2026-05-03 21:06 27.99681 -147.76147 36227 ft 454 kts 241°
2026-05-03 21:07 27.96430 -147.82268 36232 ft 454 kts 241°
2026-05-03 21:07 27.93177 -147.88382 36229 ft 453 kts 241°
2026-05-03 21:08 27.89920 -147.94496 36226 ft 453 kts 241°
2026-05-03 21:08 27.86660 -148.00607 36224 ft 453 kts 241°
2026-05-03 21:09 27.83424 -148.06664 36222 ft 453 kts 241°
2026-05-03 21:09 27.80366 -148.12381 36226 ft 453 kts 241°
2026-05-03 21:10 27.77155 -148.18374 36226 ft 452 kts 241°
2026-05-03 21:10 27.74066 -148.24133 36224 ft 452 kts 240°
2026-05-03 21:11 27.70803 -148.30205 36223 ft 452 kts 240°
2026-05-03 21:11 27.67543 -148.36268 36216 ft 452 kts 240°
2026-05-03 21:12 27.64826 -148.41312 36223 ft 451 kts 240°
2026-05-03 21:12 27.61568 -148.47353 36223 ft 451 kts 240°
2026-05-03 21:13 27.58305 -148.53395 36220 ft 451 kts 240°
2026-05-03 21:13 27.55042 -148.59429 36220 ft 451 kts 240°
2026-05-03 21:14 27.51775 -148.65460 36217 ft 450 kts 240°
2026-05-03 21:14 27.48528 -148.71447 36217 ft 450 kts 240°
2026-05-03 21:15 27.45259 -148.77465 36219 ft 450 kts 240°
2026-05-03 21:15 27.41993 -148.83471 36215 ft 449 kts 240°
2026-05-03 21:16 27.38721 -148.89479 36215 ft 449 kts 240°
2026-05-03 21:16 27.35472 -148.95438 36218 ft 449 kts 240°
2026-05-03 21:17 27.32205 -149.01421 36213 ft 449 kts 240°
2026-05-03 21:17 27.28935 -149.07401 36213 ft 448 kts 240°
2026-05-03 21:18 27.25664 -149.13375 36215 ft 448 kts 240°
2026-05-03 21:18 27.22390 -149.19345 36215 ft 448 kts 240°
2026-05-03 21:19 27.19136 -149.25271 36217 ft 448 kts 240°
2026-05-03 21:19 27.15862 -149.31226 36214 ft 448 kts 240°
2026-05-03 21:20 27.12583 -149.37181 36217 ft 448 kts 240°
2026-05-03 21:20 27.09302 -149.43133 36216 ft 448 kts 240°
2026-05-03 21:21 27.06017 -149.49084 36215 ft 448 kts 240°
2026-05-03 21:21 27.02735 -149.55022 36210 ft 448 kts 240°
2026-05-03 21:22 26.99461 -149.60936 36213 ft 448 kts 240°
2026-05-03 21:22 26.96170 -149.66873 36212 ft 448 kts 240°
2026-05-03 21:23 26.92872 -149.72816 36211 ft 448 kts 240°
2026-05-03 21:23 26.89575 -149.78749 36211 ft 448 kts 240°
2026-05-03 21:24 26.86277 -149.84675 36210 ft 448 kts 240°
2026-05-03 21:24 26.82997 -149.90560 36211 ft 448 kts 240°
2026-05-03 21:25 26.79694 -149.96481 36207 ft 448 kts 240°
2026-05-03 21:25 26.76386 -150.02399 36210 ft 448 kts 240°
2026-05-03 21:26 26.73075 -150.08319 36208 ft 449 kts 240°
2026-05-03 21:26 26.69759 -150.14237 36205 ft 448 kts 240°
2026-05-03 21:27 26.66447 -150.20143 36201 ft 448 kts 240°
2026-05-03 21:27 26.63154 -150.26005 36207 ft 448 kts 240°
2026-05-03 21:28 26.59834 -150.31907 36205 ft 448 kts 240°
2026-05-03 21:28 26.56511 -150.37809 36200 ft 448 kts 240°
2026-05-03 21:29 26.53191 -150.43696 36206 ft 448 kts 240°
2026-05-03 21:29 26.49889 -150.49545 36204 ft 448 kts 240°
2026-05-03 21:30 26.46558 -150.55437 36204 ft 448 kts 240°
2026-05-03 21:30 26.43231 -150.61314 36207 ft 448 kts 240°
2026-05-03 21:31 26.39897 -150.67195 36204 ft 448 kts 240°
2026-05-03 21:31 26.36565 -150.73066 36205 ft 448 kts 240°
2026-05-03 21:32 26.33252 -150.78896 36196 ft 447 kts 240°
2026-05-03 21:32 26.29918 -150.84754 36204 ft 448 kts 240°
2026-05-03 21:33 26.26574 -150.90623 36201 ft 447 kts 240°
2026-05-03 21:33 26.23233 -150.96479 36207 ft 448 kts 240°
2026-05-03 21:34 26.19915 -151.02287 36205 ft 447 kts 240°
2026-05-03 21:34 26.16572 -151.08131 36201 ft 447 kts 240°
2026-05-03 21:35 26.13230 -151.13970 36195 ft 447 kts 239°
2026-05-03 21:35 26.09884 -151.19804 36195 ft 447 kts 239°
2026-05-03 21:36 26.06538 -151.25631 36192 ft 447 kts 240°
2026-05-03 21:36 26.03184 -151.31465 36189 ft 447 kts 239°
2026-05-03 21:37 25.99852 -151.37253 36192 ft 447 kts 239°
2026-05-03 21:37 25.96497 -151.43075 36197 ft 447 kts 239°
2026-05-03 21:38 25.93138 -151.48895 36194 ft 447 kts 239°
2026-05-03 21:38 25.89783 -151.54702 36193 ft 446 kts 239°
2026-05-03 21:39 25.86427 -151.60504 36193 ft 446 kts 239°
2026-05-03 21:39 25.83082 -151.66277 36188 ft 446 kts 239°
2026-05-03 21:40 25.79720 -151.72074 36189 ft 447 kts 239°
2026-05-03 21:40 25.76355 -151.77870 36194 ft 446 kts 239°
2026-05-03 21:41 25.72991 -151.83655 36194 ft 446 kts 239°
2026-05-03 21:41 25.69640 -151.89410 36192 ft 446 kts 239°
2026-05-03 21:42 25.66273 -151.95187 36192 ft 446 kts 239°
2026-05-03 21:42 25.62900 -152.00968 36188 ft 446 kts 239°
2026-05-03 21:43 25.59524 -152.06744 36191 ft 446 kts 239°
2026-05-03 21:43 25.56147 -152.12517 36187 ft 446 kts 239°
2026-05-03 21:44 25.52795 -152.18240 36186 ft 446 kts 239°
2026-05-03 21:44 25.49419 -152.23995 36181 ft 445 kts 239°
2026-05-03 21:45 25.46035 -152.29759 36184 ft 446 kts 239°
2026-05-03 21:45 25.42654 -152.35508 36182 ft 446 kts 239°
2026-05-03 21:46 25.39269 -152.41261 36185 ft 445 kts 239°
2026-05-03 21:46 25.35885 -152.47001 36183 ft 445 kts 239°
2026-05-03 21:47 25.32502 -152.52735 36183 ft 445 kts 239°
2026-05-03 21:47 25.29140 -152.58426 36180 ft 445 kts 239°
2026-05-03 21:48 25.25740 -152.64174 36180 ft 445 kts 239°
2026-05-03 21:48 25.22369 -152.69863 36179 ft 445 kts 239°
2026-05-03 21:49 25.18978 -152.75585 36178 ft 445 kts 239°
2026-05-03 21:49 25.15584 -152.81301 36175 ft 445 kts 239°
2026-05-03 21:50 25.12192 -152.87009 36180 ft 445 kts 239°
2026-05-03 21:50 25.08796 -152.92716 36173 ft 444 kts 239°
2026-05-03 21:51 25.05398 -152.98419 36174 ft 444 kts 238°
2026-05-03 21:51 25.02016 -153.04088 36173 ft 445 kts 238°
2026-05-03 21:52 24.98617 -153.09781 36172 ft 444 kts 238°
2026-05-03 21:52 24.95212 -153.15475 36172 ft 445 kts 238°
2026-05-03 21:53 24.91807 -153.21163 36172 ft 444 kts 238°
2026-05-03 21:53 24.88395 -153.26855 36171 ft 445 kts 238°
2026-05-03 21:54 24.84985 -153.32538 36173 ft 445 kts 238°
2026-05-03 21:54 24.81569 -153.38226 36173 ft 445 kts 238°
2026-05-03 21:55 24.78174 -153.43870 36173 ft 444 kts 238°
2026-05-03 21:55 24.74756 -153.49546 36173 ft 444 kts 238°
2026-05-03 21:56 24.71337 -153.55218 36173 ft 444 kts 238°
2026-05-03 21:56 24.67924 -153.60875 36170 ft 444 kts 238°
2026-05-03 21:57 24.64509 -153.66529 36173 ft 443 kts 238°
2026-05-03 21:57 24.61109 -153.72149 36171 ft 444 kts 238°
2026-05-03 21:58 24.57687 -153.77802 36167 ft 444 kts 238°
2026-05-03 21:58 24.54263 -153.83450 36172 ft 444 kts 238°
2026-05-03 21:59 24.50835 -153.89099 36170 ft 444 kts 238°
2026-05-03 21:59 24.47404 -153.94746 36173 ft 444 kts 238°
2026-05-03 22:00 24.43994 -154.00353 36170 ft 444 kts 238°
2026-05-03 22:00 24.40559 -154.05993 36166 ft 444 kts 238°
2026-05-03 22:01 24.37118 -154.11639 36165 ft 444 kts 238°
2026-05-03 22:01 24.33681 -154.17270 36165 ft 444 kts 238°
2026-05-03 22:02 24.30263 -154.22864 36167 ft 444 kts 238°
2026-05-03 22:02 24.26824 -154.28486 36167 ft 444 kts 238°
2026-05-03 22:03 24.23377 -154.34116 36167 ft 444 kts 238°
2026-05-03 22:03 24.20514 -154.38785 36160 ft 445 kts 238°
2026-05-03 22:04 24.17059 -154.44415 36166 ft 444 kts 238°
2026-05-03 22:04 24.13607 -154.50035 36172 ft 444 kts 238°
2026-05-03 22:05 24.10148 -154.55658 36166 ft 445 kts 238°
2026-05-03 22:05 24.06691 -154.61272 36166 ft 445 kts 238°
2026-05-03 22:06 24.03230 -154.66888 36161 ft 445 kts 238°
2026-05-03 22:06 23.99779 -154.72480 36164 ft 445 kts 238°
2026-05-03 22:07 23.96308 -154.78098 36162 ft 443 kts 238°
2026-05-03 22:07 23.92891 -154.83623 36163 ft 436 kts 238°
2026-05-03 22:08 23.89492 -154.89112 36159 ft 436 kts 238°
2026-05-03 22:08 23.86096 -154.94591 36161 ft 441 kts 238°
2026-05-03 22:09 23.82645 -155.00153 36163 ft 443 kts 238°
2026-05-03 22:10 23.77450 -155.08513 36158 ft 443 kts 238°
2026-05-03 22:10 23.73985 -155.14083 36158 ft 444 kts 238°
2026-05-03 22:11 23.70520 -155.19645 36158 ft 444 kts 238°
2026-05-03 22:11 23.67068 -155.25182 36155 ft 444 kts 238°
2026-05-03 22:12 23.63594 -155.30747 36156 ft 444 kts 238°
2026-05-03 22:12 23.60112 -155.36319 36161 ft 444 kts 238°
2026-05-03 22:13 23.56626 -155.41892 36156 ft 444 kts 237°
2026-05-03 22:13 23.52479 -155.46799 36147 ft 448 kts 213°
2026-05-03 22:13 23.49657 -155.48241 36149 ft 452 kts 199°
2026-05-03 22:14 23.46579 -155.49021 36159 ft 456 kts 194°
2026-05-03 22:14 23.40343 -155.50392 36153 ft 458 kts 193°
2026-05-03 22:15 23.34077 -155.51683 36154 ft 458 kts 192°
2026-05-03 22:15 23.27808 -155.52954 36153 ft 458 kts 192°
2026-05-03 22:16 23.21543 -155.54222 36150 ft 458 kts 192°
2026-05-03 22:16 23.15306 -155.55484 36151 ft 458 kts 192°
2026-05-03 22:17 23.09029 -155.56751 36149 ft 459 kts 192°
2026-05-03 22:17 23.02751 -155.58019 36149 ft 459 kts 192°
2026-05-03 22:18 22.96467 -155.59286 36147 ft 459 kts 192°
2026-05-03 22:18 22.90190 -155.60550 36149 ft 459 kts 192°
2026-05-03 22:19 22.83914 -155.61813 36147 ft 459 kts 192°
2026-05-03 22:19 22.77663 -155.63070 36143 ft 459 kts 192°
2026-05-03 22:20 22.71382 -155.64331 36142 ft 459 kts 192°
2026-05-03 22:20 22.65097 -155.65592 36138 ft 459 kts 192°
2026-05-03 22:21 22.58816 -155.66852 36138 ft 459 kts 192°
2026-05-03 22:21 22.52532 -155.68111 36137 ft 459 kts 193°
2026-05-03 22:22 22.46247 -155.69368 36140 ft 459 kts 193°
2026-05-03 22:22 22.39965 -155.70624 36140 ft 459 kts 193°
2026-05-03 22:23 22.33688 -155.71878 36136 ft 459 kts 193°
2026-05-03 22:23 22.27406 -155.73132 36135 ft 459 kts 193°
2026-05-03 22:24 22.21172 -155.74375 36135 ft 459 kts 193°
2026-05-03 22:24 22.14891 -155.75626 36130 ft 459 kts 193°
2026-05-03 22:25 22.08610 -155.76876 36135 ft 458 kts 193°
2026-05-03 22:25 22.02323 -155.78126 35877 ft 459 kts 193°
2026-05-03 22:25 21.99181 -155.78750 35257 ft 458 kts 193°
2026-05-03 22:26 21.96074 -155.79367 34450 ft 462 kts 192°
2026-05-03 22:26 21.92899 -155.79997 33620 ft 465 kts 192°
2026-05-03 22:26 21.89728 -155.80627 32944 ft 464 kts 192°
2026-05-03 22:26 21.86560 -155.81255 32375 ft 460 kts 192°
2026-05-03 22:27 21.83418 -155.81881 31833 ft 456 kts 192°
2026-05-03 22:27 21.80295 -155.82498 31305 ft 457 kts 192°
2026-05-03 22:27 21.77159 -155.83118 30781 ft 458 kts 192°
2026-05-03 22:27 21.74029 -155.83738 30363 ft 457 kts 192°
2026-05-03 22:28 21.70904 -155.84356 29972 ft 456 kts 192°
2026-05-03 22:28 21.67794 -155.84972 29554 ft 453 kts 192°
2026-05-03 22:28 21.64702 -155.85583 29143 ft 450 kts 192°
2026-05-03 22:28 21.61629 -155.86191 28728 ft 447 kts 192°
2026-05-03 22:29 21.58582 -155.86793 28334 ft 444 kts 192°
2026-05-03 22:29 21.55551 -155.87391 27946 ft 441 kts 192°
2026-05-03 22:29 21.52543 -155.87985 27559 ft 438 kts 192°
2026-05-03 22:29 21.49580 -155.88569 27179 ft 439 kts 192°
2026-05-03 22:30 21.46561 -155.89165 26796 ft 443 kts 192°
2026-05-03 22:30 21.43524 -155.89764 26538 ft 444 kts 192°
2026-05-03 22:30 21.40487 -155.90362 26291 ft 443 kts 192°
2026-05-03 22:30 21.37461 -155.90958 25831 ft 440 kts 192°
2026-05-03 22:31 21.34460 -155.91549 25295 ft 437 kts 192°
2026-05-03 22:31 21.31461 -155.92139 24620 ft 439 kts 192°
2026-05-03 22:31 21.28452 -155.92731 23980 ft 440 kts 191°
2026-05-03 22:31 21.25456 -155.93321 23293 ft 436 kts 191°
2026-05-03 22:32 21.22491 -155.93904 22695 ft 430 kts 191°
2026-05-03 22:32 21.19567 -155.94478 22147 ft 423 kts 192°
2026-05-03 22:32 21.16731 -155.95035 21652 ft 416 kts 192°
2026-05-03 22:32 21.13905 -155.95590 21190 ft 409 kts 192°
2026-05-03 22:33 21.11136 -155.96134 20786 ft 401 kts 192°
2026-05-03 22:33 21.08407 -155.96669 20378 ft 394 kts 192°
2026-05-03 22:33 21.05725 -155.97195 19972 ft 388 kts 192°
2026-05-03 22:33 21.03086 -155.97712 19492 ft 385 kts 192°
2026-05-03 22:34 21.00452 -155.98229 19006 ft 382 kts 192°
2026-05-03 22:34 20.97827 -155.98743 18520 ft 383 kts 192°
2026-05-03 22:34 20.95243 -155.99249 18158 ft 378 kts 192°
2026-05-03 22:34 20.92694 -155.99748 18106 ft 367 kts 192°
2026-05-03 22:35 20.90182 -156.00240 18068 ft 366 kts 192°
2026-05-03 22:35 20.87672 -156.00731 18049 ft 366 kts 192°
2026-05-03 22:35 20.85148 -156.01022 18041 ft 367 kts 181°
2026-05-03 22:35 20.82613 -156.01028 17785 ft 363 kts 182°
2026-05-03 22:36 20.80075 -156.01085 17306 ft 363 kts 182°
2026-05-03 22:36 20.77561 -156.01158 16929 ft 360 kts 183°
2026-05-03 22:36 20.75059 -156.01240 16533 ft 358 kts 183°
2026-05-03 22:36 20.72579 -156.01326 16142 ft 355 kts 183°
2026-05-03 22:37 20.70131 -156.01413 15578 ft 359 kts 182°
2026-05-03 22:37 20.67616 -156.01504 14970 ft 364 kts 182°
2026-05-03 22:37 20.65069 -156.01596 14373 ft 369 kts 182°
2026-05-03 22:37 20.62488 -156.01689 13765 ft 373 kts 182°
2026-05-03 22:38 20.59880 -156.01784 13150 ft 374 kts 182°
2026-05-03 22:38 20.57319 -156.01876 12647 ft 362 kts 182°
2026-05-03 22:38 20.54848 -156.01951 12158 ft 350 kts 181°
2026-05-03 22:38 20.52444 -156.02024 11738 ft 338 kts 181°
2026-05-03 22:39 20.50136 -156.02095 11389 ft 325 kts 181°
2026-05-03 22:39 20.47908 -156.02163 11033 ft 314 kts 181°
2026-05-03 22:39 20.45753 -156.02229 10684 ft 304 kts 181°
2026-05-03 22:39 20.43692 -156.02293 10345 ft 298 kts 181°
2026-05-03 22:40 20.41620 -156.02356 9996 ft 297 kts 181°
2026-05-03 22:40 20.39558 -156.02419 9618 ft 295 kts 181°
2026-05-03 22:40 20.37517 -156.02481 9233 ft 293 kts 181°
2026-05-03 22:40 20.35489 -156.02543 8855 ft 290 kts 181°
2026-05-03 22:41 20.33476 -156.02591 8475 ft 288 kts 180°
2026-05-03 22:41 20.31472 -156.02637 8126 ft 286 kts 180°
2026-05-03 22:41 20.29504 -156.02683 7862 ft 281 kts 180°
2026-05-03 22:41 20.27554 -156.02728 7596 ft 280 kts 180°
2026-05-03 22:42 20.25627 -156.02773 7337 ft 280 kts 180°
2026-05-03 22:42 20.23683 -156.02819 7073 ft 279 kts 180°
2026-05-03 22:42 20.21747 -156.02865 6819 ft 277 kts 180°
2026-05-03 22:42 20.19826 -156.02910 6559 ft 275 kts 180°
2026-05-03 22:43 20.17920 -156.02955 6290 ft 273 kts 180°
2026-05-03 22:43 20.16030 -156.02999 6012 ft 270 kts 180°
2026-05-03 22:43 20.14156 -156.03043 5745 ft 268 kts 180°
2026-05-03 22:43 20.12296 -156.03087 5470 ft 266 kts 180°
2026-05-03 22:44 20.10447 -156.03129 5169 ft 265 kts 179°
2026-05-03 22:44 20.08603 -156.03173 4866 ft 265 kts 179°
2026-05-03 22:44 20.06770 -156.03217 4546 ft 261 kts 179°
2026-05-03 22:44 20.04965 -156.03260 4227 ft 257 kts 179°
2026-05-03 22:45 20.03191 -156.03301 3922 ft 252 kts 179°
2026-05-03 22:45 20.01470 -156.03340 3686 ft 244 kts 179°
2026-05-03 22:45 19.99805 -156.03379 3498 ft 234 kts 179°
2026-05-03 22:45 19.98208 -156.03417 3350 ft 224 kts 179°
2026-05-03 22:46 19.96702 -156.03453 3219 ft 215 kts 179°
2026-05-03 22:46 19.95245 -156.03489 3097 ft 204 kts 179°
2026-05-03 22:46 19.93859 -156.03527 2984 ft 194 kts 179°
2026-05-03 22:46 19.92517 -156.03554 2884 ft 191 kts 179°
2026-05-03 22:47 19.91194 -156.03587 2766 ft 187 kts 179°
2026-05-03 22:47 19.89943 -156.03613 2614 ft 172 kts 179°
2026-05-03 22:47 19.88761 -156.03639 2456 ft 166 kts 180°
2026-05-03 22:47 19.87639 -156.03538 2285 ft 160 kts 172°
2026-05-03 22:48 19.86547 -156.03477 2153 ft 154 kts 179°
2026-05-03 22:48 19.85477 -156.03531 2002 ft 153 kts 183°
2026-05-03 22:48 19.84414 -156.03619 1821 ft 153 kts 184°
2026-05-03 22:48 19.83353 -156.03718 1641 ft 153 kts 185°
2026-05-03 22:49 19.82304 -156.03812 1443 ft 153 kts 185°
2026-05-03 22:49 19.81247 -156.03907 1248 ft 152 kts 185°
2026-05-03 22:49 19.80197 -156.03997 1061 ft 150 kts 186°
2026-05-03 22:49 19.79154 -156.04089 864 ft 150 kts 187°
2026-05-03 22:50 19.78128 -156.04189 678 ft 147 kts 189°
2026-05-03 22:50 19.77117 -156.04285 477 ft 145 kts 188°
2026-05-03 22:50 19.76113 -156.04370 244 ft 145 kts 187°
2026-05-03 22:50 19.75112 -156.04457 90 ft 145 kts 188°
2026-05-03 22:51 19.74224 -156.04536 54 ft 98 kts 185°
2026-05-03 22:51 19.73767 -156.04576 50 ft 48 kts 185°
2026-05-03 22:51 19.73616 -156.04552 52 ft 14 kts 121°
2026-05-03 22:51 19.73605 -156.04481 52 ft 7 kts 94°
2026-05-03 22:52 19.73602 -156.04427 51 ft 5 kts 94°
2026-05-03 22:52 19.73598 -156.04386 49 ft 7 kts 94°
2026-05-03 22:52 19.73601 -156.04325 49 ft 10 kts 87°
2026-05-03 22:52 19.73594 -156.04251 52 ft 9 kts 95°
2026-05-03 22:53 19.73591 -156.04215 52 ft 2 kts 95°
2026-05-03 22:53 19.73591 -156.04214 52 ft 0 kts 95°